TimeCDT,TemperatureF,Dew PointF,Humidity,Sea Level PressureIn,VisibilityMPH,Wind Direction,Wind SpeedMPH,Gust SpeedMPH,PrecipitationIn,Events,Conditions,WindDirDegrees,DateUTC
12:15 AM,61.9,53.1,73,30.02,10.0,East,13.8,-,N/A,,Overcast,90,2013-05-06 05:15:00
12:35 AM,61.7,53.1,73,30.02,10.0,East,12.7,-,N/A,,Overcast,80,2013-05-06 05:35:00
12:55 AM,60.8,53.6,77,30.02,10.0,East,11.5,-,N/A,,Overcast,80,2013-05-06 05:55:00
1:15 AM,59.9,54.0,81,30.02,10.0,East,9.2,-,N/A,,Overcast,90,2013-05-06 06:15:00
1:35 AM,59.7,53.6,80,30.01,10.0,East,5.8,-,N/A,,Overcast,80,2013-05-06 06:35:00
1:55 AM,58.3,53.2,83,30.01,10.0,East,5.8,-,N/A,,Mostly Cloudy,80,2013-05-06 06:55:00
2:15 AM,57.7,52.7,83,30.01,10.0,NE,5.8,-,N/A,,Scattered Clouds,50,2013-05-06 07:15:00
2:35 AM,56.5,52.7,87,30.01,10.0,ENE,6.9,-,N/A,,Clear,60,2013-05-06 07:35:00
2:55 AM,56.3,52.7,88,30.01,10.0,ENE,5.8,-,N/A,,Mostly Cloudy,60,2013-05-06 07:55:00
3:15 AM,56.8,52.9,87,30.01,10.0,NE,5.8,-,N/A,,Overcast,40,2013-05-06 08:15:00
3:35 AM,56.7,53.1,88,30.01,10.0,NE,4.6,-,N/A,,Overcast,40,2013-05-06 08:35:00
3:55 AM,56.5,52.7,87,30.01,10.0,North,5.8,-,N/A,,Overcast,10,2013-05-06 08:55:00
4:15 AM,57.2,53.1,86,30.01,10.0,North,5.8,-,N/A,,Overcast,10,2013-05-06 09:15:00
4:35 AM,56.7,53.4,89,30.01,10.0,North,4.6,-,N/A,,Overcast,360,2013-05-06 09:35:00
4:55 AM,56.3,53.1,89,30.01,10.0,North,4.6,-,N/A,,Overcast,350,2013-05-06 09:55:00
5:15 AM,56.3,52.9,88,30.01,10.0,NNW,8.1,-,N/A,,Overcast,340,2013-05-06 10:15:00
5:35 AM,56.3,52.9,88,30.01,10.0,NNW,8.1,-,N/A,,Overcast,330,2013-05-06 10:35:00
5:55 AM,56.7,53.6,89,30.02,10.0,NNW,6.9,-,N/A,,Overcast,330,2013-05-06 10:55:00
6:15 AM,57.0,53.6,88,30.03,10.0,NNW,9.2,-,N/A,,Overcast,330,2013-05-06 11:15:00
6:35 AM,57.2,53.8,88,30.03,10.0,NNW,8.1,-,N/A,,Overcast,340,2013-05-06 11:35:00
6:55 AM,58.1,53.8,86,30.03,10.0,NNW,8.1,-,N/A,,Overcast,340,2013-05-06 11:55:00
7:15 AM,58.3,53.8,85,30.04,10.0,NNW,8.1,-,N/A,,Overcast,340,2013-05-06 12:15:00
7:35 AM,59.0,54.1,84,30.04,10.0,North,6.9,-,N/A,,Overcast,350,2013-05-06 12:35:00
7:55 AM,59.9,54.0,81,30.05,10.0,North,9.2,-,N/A,,Overcast,350,2013-05-06 12:55:00
8:15 AM,60.1,54.5,82,30.05,10.0,North,9.2,-,N/A,,Overcast,350,2013-05-06 13:15:00
8:35 AM,60.8,54.5,80,30.06,10.0,North,6.9,-,N/A,,Overcast,10,2013-05-06 13:35:00
8:55 AM,61.3,54.3,78,30.06,10.0,North,8.1,-,N/A,,Overcast,360,2013-05-06 13:55:00
9:15 AM,62.8,54.3,74,30.06,10.0,North,12.7,-,N/A,,Overcast,360,2013-05-06 14:15:00
9:35 AM,64.0,54.0,70,30.06,10.0,North,12.7,-,N/A,,Overcast,360,2013-05-06 14:35:00
9:55 AM,65.5,54.7,68,30.06,10.0,North,13.8,-,N/A,,Overcast,10,2013-05-06 14:55:00
10:15 AM,66.9,55.2,66,30.06,10.0,NNE,12.7,-,N/A,,Mostly Cloudy,20,2013-05-06 15:15:00
10:35 AM,68.0,54.1,61,30.05,10.0,North,15.0,-,N/A,,Mostly Cloudy,360,2013-05-06 15:35:00
10:55 AM,69.1,54.3,59,30.05,10.0,North,15.0,-,N/A,,Mostly Cloudy,360,2013-05-06 15:55:00
11:15 AM,70.7,54.1,56,30.04,10.0,North,15.0,-,N/A,,Scattered Clouds,360,2013-05-06 16:15:00
11:35 AM,71.6,54.1,54,30.04,10.0,NNE,15.0,19.6,N/A,,Clear,20,2013-05-06 16:35:00
11:55 AM,72.3,54.3,53,30.03,10.0,North,15.0,20.7,N/A,,Clear,10,2013-05-06 16:55:00
12:15 PM,73.0,54.5,52,30.03,10.0,NNE,12.7,-,N/A,,Clear,30,2013-05-06 17:15:00
12:35 PM,73.6,53.2,49,30.02,10.0,NNE,15.0,-,N/A,,Clear,20,2013-05-06 17:35:00
12:55 PM,73.9,52.3,47,30.02,10.0,NNE,17.3,-,N/A,,Clear,20,2013-05-06 17:55:00
1:15 PM,74.3,51.4,45,30.02,10.0,NNE,15.0,20.7,N/A,,Clear,20,2013-05-06 18:15:00
1:35 PM,74.3,52.2,46,30.02,10.0,NNE,13.8,20.7,N/A,,Clear,30,2013-05-06 18:35:00
1:55 PM,74.7,51.4,44,30.01,10.0,NE,11.5,18.4,N/A,,Clear,50,2013-05-06 18:55:00
2:15 PM,75.2,50.5,42,30.01,10.0,NE,11.5,-,N/A,,Clear,40,2013-05-06 19:15:00
2:35 PM,75.2,51.8,44,30.01,10.0,NE,11.5,17.3,N/A,,Clear,50,2013-05-06 19:35:00
2:55 PM,75.9,50.5,41,30.00,10.0,NNE,12.7,19.6,N/A,,Clear,30,2013-05-06 19:55:00
3:15 PM,76.1,49.3,39,30.00,10.0,NNE,9.2,-,N/A,,Clear,30,2013-05-06 20:15:00
3:35 PM,76.3,49.3,39,30.00,10.0,NE,16.1,-,N/A,,Scattered Clouds,50,2013-05-06 20:35:00
3:55 PM,77.0,48.6,37,29.99,10.0,NNE,15.0,24.2,N/A,,Scattered Clouds,30,2013-05-06 20:55:00
4:15 PM,77.2,48.2,36,29.99,10.0,NE,12.7,16.1,N/A,,Scattered Clouds,40,2013-05-06 21:15:00
4:35 PM,76.6,46.8,35,29.99,10.0,NNE,10.4,-,N/A,,Scattered Clouds,20,2013-05-06 21:35:00
4:55 PM,76.6,48.4,37,29.99,10.0,NNE,10.4,19.6,N/A,,Scattered Clouds,20,2013-05-06 21:55:00
5:15 PM,76.5,46.6,35,29.99,10.0,NNE,10.4,-,N/A,,Mostly Cloudy,20,2013-05-06 22:15:00
5:35 PM,74.7,49.5,41,29.99,10.0,North,9.2,-,N/A,,Mostly Cloudy,10,2013-05-06 22:35:00
5:55 PM,74.5,48.9,40,29.99,10.0,NNE,9.2,-,N/A,,Overcast,30,2013-05-06 22:55:00
6:15 PM,73.8,48.9,41,29.99,10.0,North,6.9,-,N/A,,Overcast,10,2013-05-06 23:15:00
6:35 PM,73.2,50.5,45,29.99,10.0,North,9.2,-,N/A,,Overcast,10,2013-05-06 23:35:00
6:55 PM,72.5,52.2,49,29.99,10.0,North,6.9,-,N/A,,Overcast,360,2013-05-06 23:55:00
7:15 PM,71.2,53.6,54,29.99,10.0,North,6.9,-,N/A,,Overcast,360,2013-05-07 00:15:00
7:35 PM,69.1,55.8,62,29.99,10.0,North,5.8,-,N/A,,Overcast,350,2013-05-07 00:35:00
7:55 PM,68.4,56.5,66,30.00,10.0,North,5.8,-,N/A,,Overcast,350,2013-05-07 00:55:00
8:15 PM,66.9,57.0,70,30.00,10.0,North,5.8,-,N/A,,Overcast,350,2013-05-07 01:15:00
8:35 PM,66.0,57.2,73,30.00,10.0,NNW,4.6,-,N/A,,Overcast,340,2013-05-07 01:35:00
8:55 PM,64.8,57.2,76,30.01,10.0,NE,5.8,-,N/A,,Overcast,50,2013-05-07 01:55:00
9:15 PM,66.0,55.4,69,30.02,10.0,NE,6.9,-,N/A,,Overcast,40,2013-05-07 02:15:00
9:35 PM,65.5,54.9,68,30.02,10.0,NE,4.6,-,N/A,,Overcast,50,2013-05-07 02:35:00
9:55 PM,63.5,56.3,77,30.02,10.0,North,4.6,-,N/A,,Overcast,10,2013-05-07 02:55:00
10:15 PM,62.2,55.4,78,30.02,10.0,North,4.6,-,N/A,,Scattered Clouds,350,2013-05-07 03:15:00
10:35 PM,61.3,55.4,81,30.02,10.0,NNW,5.8,-,N/A,,Mostly Cloudy,330,2013-05-07 03:35:00
10:55 PM,63.3,55.6,76,30.02,10.0,NNW,8.1,-,N/A,,Overcast,330,2013-05-07 03:55:00
11:15 PM,62.6,55.9,79,30.02,10.0,North,3.5,-,N/A,,Overcast,350,2013-05-07 04:15:00
11:35 PM,62.8,55.6,77,30.02,10.0,North,4.6,-,N/A,,Overcast,10,2013-05-07 04:35:00
11:55 PM,62.6,55.0,76,30.03,10.0,North,4.6,-,N/A,,Overcast,360,2013-05-07 04:55:00